Simultaneous Nadir Overpasses (SNOs) Predictions

Prediction of SNOs between FY3D and AQUA Satellite Orbit:

Table of predicted SNOs for the next 14.0 days since TLE Epoch: 4/11/2020
Index Date (FY3D) Time (FY3D) Lat,Lon (FY3D) SZA (FY3D ) Date (AQUA) Time (AQUA) Lat,Lon (AQUA) SZA (AQUA ) Distance(km) Time Diff (sec)
1 04/12/2020 11:02:18 -68.33, 59.52 83.38 04/12/2020 11:02:29 -68.32, 59.47 83.37 2.22 11
2 04/12/2020 11:52:13 70.88,-129.41 93.94 04/12/2020 11:51:08 70.88,-129.40 94.00 0.61 65
3 04/15/2020 03:18:57 -67.52, 174.42 83.53 04/15/2020 03:19:12 -67.53, 174.43 83.55 0.29 15
4 04/15/2020 04:08:33 71.09, -13.15 92.74 04/15/2020 04:07:33 71.09, -13.20 92.82 2.30 60
5 04/17/2020 19:35:35 -66.71, -70.61 83.65 04/17/2020 19:35:54 -66.72, -70.56 83.69 2.31 19
6 04/17/2020 20:25:05 70.63, 101.98 92.28 04/17/2020 20:24:09 70.63, 101.97 92.34 0.44 56
7 04/20/2020 11:51:52 -67.09, 45.73 84.97 04/20/2020 11:52:16 -67.09, 45.71 84.99 0.97 24
8 04/20/2020 12:41:38 70.16,-142.86 91.85 04/20/2020 12:40:46 70.16,-142.84 91.90 0.96 52
9 04/23/2020 04:08:27 -66.50, 160.96 85.26 04/23/2020 04:08:55 -66.50, 160.96 85.29 0.21 28




NCC Satellite Simultaneous Nadir Overpasses (SNOs) Prediction Service
